Home   Weather   Gloucester   Past weeks

Flag for USA Past Weather in Gloucester, Massachusetts, USA — Yesterday and Last 2 Weeks

Now
40 °F

Overcast.


Feels Like: 37 °F
Forecast: 38 / 47 °F
Wind: 5 mph from South

Location: Beverly Municipal Airport

Current Time: Jan 20, 2017 at 7:20:21 pm

Latest Report: Jan 20, 2017 at 6:53 pm


Visibility: 10 mi

Pressure: 29.95 "Hg

Humidity: 77%

Dew Point: 33 °F

Location of GloucesterLocation

Past Weather in Gloucester — Graph

°F

Gloucester Temperature Yesterday

Maximum temperature yesterday: 44 °F (at 12:53 pm)
Minimum temperature yesterday: 31 °F (at 12:30 am)
Average temperature yesterday: 36 °F

High & Low Weather Summary for the Past Weeks

 TemperatureHumidityPressure
High62 °F (Jan 12, 12:53 pm)100% (Jan 12, 1:53 am)30.69 "Hg (Jan 12, 1:53 am)
Low4 °F (Jan 9, 7:53 am)25% (Jan 13, 5:53 pm)29.88 "Hg (Jan 12, 2:53 pm)
Average31 °F71%30.20 "Hg
* Reported Jan 5 5:53 pm — Jan 20 5:53 pm, Gloucester, Weather by CustomWeather, © 2017

Note: Actual official high and low records may vary slightly from our data, if they occured in-between our weather recording intervals... More about our weather records

Advertising

Gloucester Weather History for the Previous 24 Hours

Scroll right to see more
 ConditionsComfort  
Time TempWeatherWind HumidityBarometerVisibility
5:53 pm
Fri, Jan 20
39 °FOvercast.5 mph76%29.93 "Hg10 mi
4:53 pm40 °FOvercast.6 mph73%29.93 "Hg10 mi
3:53 pm40 °FOvercast.6 mph73%29.95 "Hg10 mi
3:35 pm40 °FOvercast.6 mph73%29.96 "Hg10 mi
2:53 pm41 °FOvercast.8 mph70%29.95 "Hg10 mi
1:53 pm41 °FOvercast.8 mph67%29.96 "Hg10 mi
12:53 pm41 °FOvercast.7 mph67%29.96 "Hg10 mi
11:53 am41 °FOvercast.No wind67%29.98 "Hg10 mi
10:53 am40 °FOvercast.3 mph73%30.01 "Hg10 mi
9:53 am38 °FOvercast.No wind79%30.02 "Hg10 mi
8:53 am36 °FOvercast.3 mph82%30.02 "Hg10 mi
7:53 am35 °FOvercast.5 mph82%30.01 "Hg10 mi
6:53 am34 °FOvercast.3 mph82%30.00 "Hg10 mi
5:53 am34 °FOvercast.6 mph82%29.99 "Hg10 mi
4:53 am34 °FOvercast.3 mph85%30.00 "Hg10 mi
4:03 am35 °FOvercast.5 mph82%30.00 "Hg10 mi
3:53 am35 °FOvercast.7 mph82%29.98 "Hg10 mi
2:53 am34 °FOvercast.3 mph82%29.98 "Hg10 mi
2:17 am34 °FOvercast.5 mph82%30.00 "Hg10 mi
1:53 am33 °FOvercast.3 mph88%29.98 "Hg10 mi
12:53 am35 °FPassing clouds.5 mph78%29.96 "Hg10 mi
11:53 pm
Thu, Jan 19
37 °FOvercast.6 mph73%29.98 "Hg10 mi
10:53 pm38 °FOvercast.8 mph73%30.02 "Hg10 mi
9:53 pm39 °FOvercast.8 mph76%30.02 "Hg10 mi
8:53 pm40 °FOvercast.7 mph73%30.01 "Hg10 mi
7:53 pm40 °FOvercast.7 mph77%29.98 "Hg10 mi
Weather by CustomWeather, © 2017

See weather overviewHow to use our weather pages